Location: Gairloch Mountain Observatory
(46.1383°N, 60.9640°W)
Time: 18:08:56
(UTC-03:00)

CENTAUR R/B - Visible Passes

Search period start: 25 October 2014 00:00
Search period end: 03 November 2014 23:00
Orbit: 894 x 1296 km, 63.5° (Epoch: 14 October)

Date Brightness Start Highest point End Pass type
(mag) Time Alt. Az. Time Alt. Az. Time Alt. Az.
25 Oct 5.0 03:02:13 16° ESE 03:02:13 16° ESE 03:03:40 10° ESE visible
25 Oct 3.7 04:49:32 37° SSW 04:49:32 37° SSW 04:54:30 10° S visible
25 Oct 3.3 18:33:17 10° S 18:38:38 31° ESE 18:44:24 10° NE visible
25 Oct 3.0 20:22:35 10° SW 20:28:50 61° NW 20:33:29 22° NNE visible
25 Oct 4.5 22:15:45 10° WNW 22:20:42 24° NNW 22:20:42 24° NNW visible
26 Oct 4.6 04:04:37 21° SSE 04:04:37 21° SSE 04:06:49 10° SSE visible
26 Oct 4.6 05:51:56 14° SW 05:51:56 14° SW 05:53:34 10° SW visible
26 Oct 2.5 19:34:20 10° SW 19:40:37 90° SE 19:47:12 12° NE visible
26 Oct 4.2 21:26:35 10° W 21:32:15 30° NNW 21:34:24 25° N visible
26 Oct 5.2 23:20:33 10° NW 23:21:36 13° NW 23:21:36 13° NW visible
27 Oct 4.9 05:06:57 12° SSW 05:06:57 12° SSW 05:07:31 10° SSW visible
27 Oct 2.7 18:46:32 10° SSW 18:52:36 58° ESE 18:59:18 10° NE visible
27 Oct 3.7 20:37:36 10° WSW 20:43:36 39° NW 20:48:00 20° NNE visible
27 Oct 4.8 22:31:29 10° NW 22:35:12 20° NNW 22:35:12 20° NNW visible
28 Oct 3.2 19:48:55 10° WSW 19:55:09 56° NW 20:01:32 12° NNE visible
28 Oct 4.5 21:42:16 10° WNW 21:47:29 23° NNW 21:48:44 22° N visible
28 Oct 5.4 23:35:43 10° NW 23:35:55 11° NW 23:35:55 11° NW visible
29 Oct 2.7 19:00:35 10° SW 19:06:52 82° NW 19:13:52 10° NE visible
29 Oct 4.3 20:53:05 10° W 20:58:39 28° NNW 21:02:12 19° NNE visible
29 Oct 5.0 22:46:59 10° NW 22:49:24 17° NNW 22:49:24 17° NNW visible
30 Oct 2.7 18:12:40 10° SSW 18:18:48 65° ESE 18:25:37 10° NE visible
30 Oct 3.9 20:04:03 10° W 20:09:58 36° NNW 20:15:38 13° NNE visible
30 Oct 4.7 21:57:59 10° NW 22:02:49 20° N 22:02:49 20° N visible
31 Oct 3.4 19:15:17 10° WSW 19:21:28 51° NW 19:28:19 10° NE visible
31 Oct 4.5 21:08:48 10° WNW 21:13:56 22° NNW 21:16:13 19° N visible
31 Oct 5.2 23:02:05 10° NW 23:03:24 14° NNW 23:03:24 14° NNW visible
01 Nov 2.8 18:26:51 10° SW 18:33:09 75° NW 18:40:09 10° NE visible
01 Nov 4.3 20:19:35 10° W 20:25:04 27° NNW 20:29:36 15° NNE visible
01 Nov 4.8 22:13:25 10° NW 22:16:46 18° NNW 22:16:46 18° NNW visible
02 Nov 4.0 18:30:30 10° W 18:36:21 34° NNW 18:42:45 10° NNE visible
02 Nov 4.6 20:24:29 10° NW 20:29:22 20° N 20:30:08 20° N visible
02 Nov 5.3 22:16:47 10° NNW 22:17:18 12° NNW 22:17:18 12° NNW visible
03 Nov 3.5 17:41:40 10° WSW 17:47:47 46° NW 17:54:35 10° NNE visible
03 Nov 4.5 19:35:19 10° WNW 19:40:23 22° NNW 19:43:28 17° NNE visible
03 Nov 5.0 21:28:25 10° NW 21:30:39 17° NNW 21:30:39 17° NNW visible
